Location: Marstown
(39.5056°N, 77.0820°W)
Time: 23:07:05
(UTC-05:00)

Envisat - Visible Passes

Search period start: 18 January 2019 00:00
Search period end: 28 January 2019 00:00
Orbit: 764 x 766 km, 98.2° (Epoch: 18 January)

Date Brightness Start Highest point End Pass type
(mag) Time Alt. Az. Time Alt. Az. Time Alt. Az.
18 Jan 6.1 06:25:48 10° ENE 06:28:13 13° E 06:30:37 10° ESE visible
18 Jan 4.3 17:39:20 10° ESE 17:42:37 18° ENE 17:45:53 10° NNE visible
18 Jan 3.6 19:16:12 10° S 19:21:10 55° W 19:26:10 10° NNW visible
19 Jan 2.9 18:39:24 10° SSE 18:44:26 65° ENE 18:49:28 10° N visible
19 Jan 5.9 20:21:24 10° WSW 20:23:52 14° W 20:26:22 10° WNW visible
20 Jan 5.7 06:49:55 10° NE 06:54:00 24° E 06:58:05 10° SSE visible
20 Jan 3.7 18:03:33 10° SE 18:07:53 29° ENE 18:12:15 10° N visible
20 Jan 4.7 19:42:21 10° SSW 19:46:49 31° W 19:51:18 10° NW visible
21 Jan 3.2 19:04:53 10° S 19:09:56 71° WSW 19:15:02 10° NNW visible
22 Jan 3.1 18:28:23 10° SSE 18:33:15 51° ENE 18:38:11 10° N visible
22 Jan 5.6 20:09:14 10° SW 20:12:33 17° W 20:15:54 10° NW visible
23 Jan 5.9 06:39:08 10° NE 06:42:43 19° E 06:46:16 10° SE visible
23 Jan 4.0 17:52:48 10° ESE 17:56:47 24° ENE 18:00:46 10° NNE visible
23 Jan 4.3 19:30:49 10° SSW 19:35:33 39° W 19:40:19 10° NNW visible
24 Jan 2.9 18:53:40 10° SSE 18:58:44 90° WSW 19:03:51 10° NNW visible
25 Jan 3.4 18:17:24 10° SE 18:22:07 40° ENE 18:26:50 10° N visible
25 Jan 5.3 19:57:21 10° SW 20:01:15 22° W 20:05:11 10° NW visible
26 Jan 6.1 06:28:34 10° ENE 06:31:24 15° E 06:34:12 10° SE visible
26 Jan 3.8 19:19:23 10° S 19:24:19 50° W 19:29:15 10° NNW visible
27 Jan 2.9 18:42:30 10° SSE 18:47:33 72° ENE 18:52:37 10° N visible
27 Jan 6.0 20:25:05 10° WSW 20:27:04 12° W 20:29:03 10° WNW visible
